www.pogodaiklimat.ru

Погода и климат >> Архив погоды >> Новая Зеландия >> Маяк Puysegur Point


ПОГОДА на Маяке Puysegur Point

  • Прогноз погоды на Маяке Puysegur Point
  • Монитор погоды на Маяке Puysegur Point

АРХИВ ПОГОДЫ на Маяке Puysegur Point

Время (UTC), дата Ветер
(напр.,м/с)
 
Видим.   Явления Облачность Т
(С)
Тd
(С)
f
(%)
Тe
(С)
Тes
(С)
Комфортность P
(гПа)
Po
(гПа)
Тmin
(С)
Tmax
(С)
R
(мм)
R24
(мм)
S
(см)
03 10.06 СЗ 12 н/о н/о +11.5 +8.8 83 +7 +7 1014.5 1009.2
06 10.06 С 12 н/о н/о +10.9 +8.7 86 +6 +6 1015.1 1009.8 0.2
09 10.06 С 8 н/о н/о +10.3 +8.7 90 +6 +6 1014.2 1008.9
12 10.06 С 6 н/о н/о +10.3 +8.8 90 +7 +7 1012.9 1007.6 +11.8 3
15 10.06 С 8 н/о н/о +10.7 +7.4 80 +7 +7 1010.8 1005.5
18 10.06 С 8 н/о н/о +11.4 +6.6 72 +8 +8 1008.0 1002.7 0.2
21 10.06 С 9 н/о н/о +12.1 +7.0 71 +9 +9 1006.9 1001.6
00 11.06 С 8 н/о н/о +14.6 +7.3 62 +13 +13 1006.1 1000.9 +9.7 3
03 11.06 С 5 н/о н/о +14.1 +8.0 67 +12 +12 1003.5 998.3
06 11.06 С 6 н/о н/о +14.1 +8.9 71 +12 +12 1003.1 997.9
09 11.06 С 7 н/о н/о +12.9 +9.9 82 +10 +10 1004.5 999.3
12 11.06 С 3 н/о н/о +11.8 +10.1 89 +10 +10 1005.7 1000.4 +15.5 0.8
15 11.06 СВ 3 н/о н/о +11.4 +9.7 89 +9 +9 1006.9 1001.6
18 11.06 Ю 2 н/о н/о +11.5 +10.0 90 +11 +11 1008.7 1003.4 1
21 11.06 Ю 10 н/о н/о +10.9 +9.9 94 +7 +7 1011.8 1006.5
00 12.06 ЮВ 11 н/о н/о +11.0 +9.8 92 +7 +7 1013.7 1008.4 +10.8 9
03 12.06 ЮВ 10 н/о н/о +10.4 +9.6 95 +6 +6 1013.9 1008.6
06 12.06 ЮВ 5 н/о н/о +10.8 +9.8 94 +8 +8 1014.4 1009.1 4
09 12.06 В 5 н/о н/о +10.2 +9.0 92 +7 +7 1015.5 1010.2
12 12.06 С 1 н/о н/о +9.1 +7.7 91 +8 +8 1014.8 1009.4 +12.1 0.2
15 12.06 С 1 н/о н/о +8.9 +7.6 92 +9 +9 1014.1 1008.7
18 12.06 СВ 5 н/о н/о +9.1 +7.3 88 +6 +6 1013.6 1008.2
21 12.06 СВ 5 н/о н/о +9.2 +7.4 88 +6 +6 1013.6 1008.2
00 13.06 С 3 н/о н/о +12.9 +9.2 78 +12 +12 1012.6 1007.3 +8.6 5
03 13.06 СЗ 12 н/о н/о +13.2 +9.6 79 +10 +10 1011.0 1005.7
06 13.06 С 8 н/о н/о +13.0 +8.6 75 +10 +10 1010.7 1005.4
09 13.06 ЮВ 2 н/о н/о +11.0 +8.0 82 +10 +10 1010.6 1005.3
12 13.06 ЮВ 2 н/о н/о +11.0 +8.1 82 +10 +10 1009.4 1004.1 +14.0
15 13.06 С 10 н/о н/о +14.2 +7.4 64 +12 +12 1006.2 1001.0
18 13.06 С 7 н/о н/о +13.9 +7.8 67 +12 +12 1005.9 1000.7 0.2
21 13.06 С 6 н/о н/о +13.3 +8.0 70 +11 +11 1007.0 1001.8
00 14.06 С 5 н/о н/о +13.0 +9.3 78 +11 +11 1008.2 1002.9 +10.5 0.2
03 14.06 З 1 н/о н/о +10.9 +9.7 92 +10 +10 1009.0 1003.7
06 14.06 С 3 н/о н/о +10.7 +9.4 92 +9 +9 1010.2 1004.9 11
09 14.06 С 4 н/о н/о +9.3 +8.2 93 +6 +6 1010.8 1005.5
12 14.06 СВ 7 н/о н/о +7.8 +6.6 92 +3 +3 1010.6 1005.2 +14.6 0.2
15 14.06 СВ 6 н/о н/о +7.3 +5.8 90 +3 +3 1010.0 1004.6
18 14.06 СВ 3 н/о н/о +7.7 +5.8 88 +5 +5 1009.4 1004.0 0.6
21 14.06 СВ 5 н/о н/о +7.6 +6.3 91 +4 +4 1009.9 1004.5
00 15.06 СВ 5 н/о н/о +10.4 +7.6 83 +8 +8 1009.1 1003.8 +7.1 12
03 15.06 С 7 н/о н/о +11.7 +7.7 76 +9 +9 1007.3 1002.0
06 15.06 С 7 н/о н/о +10.1 +6.7 79 +7 +7 1006.0 1000.7 0.2
09 15.06 ЮЗ 8 н/о н/о +9.0 +7.0 87 +5 +5 1006.7 1001.4
12 15.06 СЗ 4 н/о н/о +8.4 +4.5 76 +6 +6 1007.6 1002.3 +12.0 11
15 15.06 З 7 н/о н/о +8.7 +2.8 66 +5 +5 1008.0 1002.7
18 15.06 З 7 н/о н/о +8.0 +3.1 71 +4 +4 1008.2 1002.9 0.2
21 15.06 З 5 н/о н/о +7.2 +3.5 77 +3 +3 1008.8 1003.4
00 16.06 ЮЗ 9 н/о н/о +7.2 +2.9 74 +2 +2 1008.6 1003.2 +6.3 13
03 16.06 З 7 н/о н/о +7.6 +4.0 78 +3 +3 1007.5 1002.1
06 16.06 ЮЗ 8 н/о н/о +6.9 +2.8 75 +2 +2 1008.2 1002.8 1
09 16.06 ЮЗ 11 н/о н/о +7.3 +3.5 77 +2 +2 1009.7 1004.3
12 16.06 ЮЗ 7 н/о н/о +6.8 +4.0 82 +2 +2 1010.7 1005.3 +9.6 2
15 16.06 ЮЗ 10 н/о н/о +7.2 +2.2 71 +2 +2 1012.0 1006.6
18 16.06 Ю 10 н/о н/о +7.4 +3.1 74 +2 +2 1012.7 1007.3 1
21 16.06 ЮЗ 10 н/о н/о +7.7 +3.5 75 +3 +3 1015.7 1010.3
00 17.06 ЮЗ 8 н/о н/о +8.7 +2.7 66 +5 +5 1017.6 1012.2 +4.9 5

 

Местоположение метеостанции Маяк Puysegur Point (Новая Зеландия): широта -46.16 долгота 166.63 высота над уровнем моря 44 м.

В архиве по умолчанию представлена погода на Маяке Puysegur Point за последнюю неделю. Архивные данные за месяц целиком и за предыдущие месяцы, начиная с января 2011 года, Вы можете получить, выбрав интересующий диапазон дат из раскрывающегося списка и нажав кнопку "Ввод!".


*Определитесь, кто Вы:
робот инопланетянин человек

Внимание! Время в таблицах - всемирное. Для получения местного времени необходимо прибавить поправку, которая равна 12 ч.

Смотрите также архив погоды в соседних городах и на ближайших метеорологических станциях:

Погода на Острове Секретари (Новая Зеландия) (107 км)
Погода в Инверкаргилле (Новая Зеландия) (134 км)
Погода на Мысе Юго-западный (Новая Зеландия) (137 км)
Погода в Квинстауне (Новая Зеландия) (208 км)
Погода в Данидине (Новая Зеландия) (275 км)
Погода в Тара Хилс (Новая Зеландия) (313 км)
Погода в Хаасте (Новая Зеландия) (316 км)
Погода в Тимару (Новая Зеландия) (415 км)
Погода на Острове Эндерби (Новая Зеландия) (481 км)
Погода в Хокитике (Новая Зеландия) (516 км)

Пояснения к столбцам:

Ветер - указаны скорость ветра в м/с - средняя за 10 мин, порывы в срок и между сроками (в фигурных скобках) и направление, откуда дует ветер: С - северный, СВ - северо-восточный, В - восточный, ЮВ - юго-восточный, Ю - южный, ЮЗ - юго-западный, З - западный, СЗ - северо-западный.
Видимость - горизонтальная дальность видимости в метрах или километрах. При видимости от 1 до 10 км при отсутствии осадков обычно наблюдается дымка, при ухудшении видимости до 1 км и менее - туман. В сухую погоду видимость может ухудшаться дымом, пылью или мглою.
Явления - указаны атмосферные явления, наблюдавшиеся в срок или в последний час перед сроком; фигурными скобками обозначены явления, наблюдавшиеся между сроками (за 1-3 часа до срока); квадратными скобками обозначены град или гололедные отложения с указанием их диаметра в мм.
Облачность - указаны через наклонную черту общая и нижняя облачность в баллах и высота нижней границы облаков в метрах; квадратными скобками обозначены формы облаков: Ci - перистые, Cs - перисто-слоистые, Cc - перисто-кучевые, Ac - высококучевые, As - высокослоистые, Sc - слоисто-кучевые, Ns - слоисто-дождевые, Cu - кучевые, Cb - кучево-дождевые. Подробнее классификацию облаков см. в Атласе облаков (PDF).
T - Температура воздуха - температура, измеренная на высоте 2 м над землей.
Td - Температура точки росы - температура, при понижении до которой содержащийся в воздухе водяной пар достигнет насыщения.
f - Относительная влажность воздуха - влажноcть воздуха, измеренная на высоте 2 м над землей.
Te - Эффективная температура - температура, которую ощущает одетый по сезону человек в тени. Характеристика душности погоды. При расчете учитывается влияние влажности воздуха и скорости ветра на теплоощущения человека.
Tes - Эффективная температура на солнце - температура, которую ощущает человек, с поправкой на солнечный нагрев. Характеристика знойности погоды. Зависит от высоты солнца над горизонтом, облачности и скорости ветра. Ночью, в пасмурную погоду, а также при ветре 12 м/с и более поправка равна нулю.
P - Атмосферное давление - приведенное к уровню моря атмосферное давление.
Po - Атмосферное давление - измеренное на уровне метеостанции атмосферное давление.
Tmin - Минимальная температура - минимум температуры воздуха на высоте 2 м над землей.
Tmax - Максимальная температура - максимум температуры воздуха на высоте 2 м над землей.
R - Количество осадков - Количество выпавших осадков за период времени, мм. При наведении курсора мыши на число - период времени, за который выпало указанное количество осадков.
R24 - Количество осадков - Количество выпавших осадков за 24 часа, мм.
S - Снежный покров - Высота снежного покрова, см. При наведении курсора мыши на число - состояние снежного покрова и степень покрытия местности в баллах.